Regional Weather Roundup
Issued by NWS San Diego, CA

Home | Current Version | Previous Version | Text Only | Print | Product List | Glossary On
Versions: 1 2 3 4 5 6 7 8 9 10 11 12 13 14 15 16 17 18 19 20 21 22 23 24 25 26 27 28 29 30 31 32 33 34 35 36 37 38 39 40 41 42 43 44 45 46 47 48 49 50
000
ASUS46 KSGX 170611
RWRSGX
SAN DIEGO HOURLY WEATHER ROUNDUP
NATIONAL WEATHER SERVICE SAN DIEGO CA
1100 PM PDT WED AUG 16 2017

NOTE: "FAIR" INDICATES FEW OR NO CLOUDS BELOW 12,000 FEET WITH NO
SIGNIFICANT WEATHER AND/OR OBSTRUCTIONS TO VISIBILITY.

CAZ042-043-060-061-PZZ750-775-170700-

GREATER SAN DIEGO AREA

CITY           SKY/WX    TMP DP  RH WIND       PRES   REMARKS
SAN DIEGO AP   PTCLDY    67  59  75 W5        29.99S
NATIONAL CITY    N/A     67  61  81 CALM      30.00R
IMPERIAL BEACH PTCLDY    67  59  75 NW6       29.99R
BROWN FIELD    CLEAR     64  59  83 CALM      29.98S
MIRAMAR MCAS   PTCLDY    62  56  80 CALM      29.98S
MONTGOMERY FLD CLEAR     67  59  75 W3        29.99R
GILLESPIE FLD  FAIR      64  59  82 W3        29.99R

$$

NORTH SAN DIEGO COUNTY

CITY           SKY/WX    TMP DP  RH WIND       PRES   REMARKS
CAMP PENDLETON PTCLDY    53  53 100 CALM      29.97S
OCEANSIDE AP   CLEAR     61  57  87 CALM      29.96S
OCEANSIDE HBR    N/A     65  61  86 W1        29.99S
VISTA            N/A     62  57  84 CALM      29.95R
CARLSBAD       CLEAR     65  61  87 S3        29.97R
DEL MAR          N/A     63  60  90 CALM      29.99S
LA JOLLA SCRIP   N/A     65  62  91 W2        29.97R
FALLBROOK        N/A     62  61  98 CALM      29.98R
ESCONDIDO        N/A     64  59  83 W3        29.98S
POWAY            N/A     63  57  82 CALM      29.99R

$$

EAST SAN DIEGO COUNTY

CITY           SKY/WX    TMP DP  RH WIND       PRES   REMARKS
RAMONA         CLEAR     60  56  86 W3        29.99R
SANTEE LAKES     N/A     64  59  84 CALM      29.97R
LA MESA          N/A     63  58  86 CALM      29.91R
JAMUL            N/A     62  58  87 CALM      29.98R
DESCANSO N       N/A     58  41  53 NE3       29.90R
CAMPO            N/A     59  50  72 NE5       30.00R

$$

ORANGE COUNTY AND THE LOS ANGELES BASIN

CITY           SKY/WX    TMP DP  RH WIND       PRES   REMARKS
JOHN WAYNE AP  CLEAR     68  62  81 SW3       29.96S
LAKE FOREST FR   N/A     63  56  80 CALM      29.85R
HUNTINGTON BCH   N/A     67  62  85 CALM      29.97S
LOS ALAMITOS   FAIR      66  60  80 CALM      29.96R
FULLERTON      CLEAR     68  61  78 CALM      29.95S
LONG BEACH     CLEAR     68  60  75 NW7       29.96S
L.A. AP        CLEAR     66  61  84 SW8       29.96S
L.A. DOWNTOWN  CLEAR     68  61  78 CALM      29.96R

$$

THE INLAND EMPIRE

CITY           SKY/WX    TMP DP  RH WIND       PRES   REMARKS
CORONA         CLEAR     67  59  75 NW5       29.97R
CHINO          CLEAR     67  59  75 W3        29.98R
ONTARIO        CLEAR     68  59  73 SW7       29.97R
SAN BERNARDINO FAIR      70  58  65 W5        29.99R
RIVERSIDE AP   CLEAR     67  60  78 W6        29.97S
MORENO VALLEY    N/A     68  62  81 CALM      28.09S
MARCH ARB      CLEAR     64  60  87 CALM      29.99R
HORSETHIEF CYN   N/A     66  53  62 W1        29.96S
PERRIS           N/A     68  61  78 NW1       29.97R
HEMET EAST       N/A     67  43  41 CALM      30.02S
FRENCH VALLEY  FAIR      64  55  72 S5        30.00S
TEMECULA         N/A     65  58  80 CALM      30.04S

$$

SAN BERNARDINO AND RIVERSIDE COUNTY MOUNTAINS

CITY           SKY/WX    TMP DP  RH WIND       PRES   REMARKS
BIG BEAR AP    CLEAR     50  30  46 CALM      30.23S
PINE COVE        N/A     60  43  52 CALM      29.92R

$$

SOUTHERN DESERT INCLUDING THE COACHELLA VALLEY

CITY           SKY/WX    TMP DP  RH WIND       PRES   REMARKS
PALM SPRINGS   CLEAR     85  50  29 NW14      29.84R
THOUSAND PALMS   N/A     82  56  40 NW12      29.80R
PALM DESERT      N/A     83  54  36 CALM        N/A
THERMAL        CLEAR     86  54  33 NW13      29.77R
BLYTHE         CLEAR     90  32  12 SW7       29.80R
IMPERIAL AP    CLEAR     86  51  29 W12       29.78R
EL CENTRO NAS  CLEAR     87  45  23 W14       29.80R
YUMA AZ        CLEAR     86  49  27 CALM      29.81R
MEXICALI       CLEAR     88  45  22 NW5       29.80R

$$

UPPER DESERT

CITY           SKY/WX    TMP DP  RH WIND       PRES   REMARKS
VICTORVILLE AP CLEAR     70  46  43 CALM      30.00S
HESPERIA         N/A     69  51  52 W3        29.99S
PALMDALE       CLEAR     74  46  36 SW9       29.98S
LANCASTER      CLEAR     71  50  47 W14       29.97S
EDWARDS AFB    CLEAR     72  48  43 SW12      29.94R
DAGGETT        CLEAR     80  44  27 W13       29.91R
29 PALMS N     CLEAR     82  38  20 NW5       29.97R
NEEDLES        CLEAR     89  33  13 W7        29.82R

$$

REGIONAL REPORTS

CITY           SKY/WX    TMP DP  RH WIND       PRES   REMARKS
SANTA BARBARA  CLEAR     64  58  80 CALM      29.95S
SANDBERG       CLEAR     63  54  72 W6        30.11S
LAS VEGAS NV   PTCLDY    87  38  17 SW5       29.90S
PHOENIX AZ     CLEAR     89  53  29 SW6       29.83S
TIJUANA        CLEAR     63  59  88 CALM      30.01R
ENSENADA NW      N/A     67  32  27 CALM      29.95S

$$

OFFSHORE ISLANDS

CITY           SKY/WX    TMP DP  RH WIND       PRES   REMARKS
CATALINA ARPT  CLEAR     60  58  92 W7        30.00S
SAN NICOLAS IS CLEAR    N/A N/A N/A W14       29.99R

$$

MARINE AND OFFSHORE BUOY REPORTS

STATION/POSITION SKY/WX   TEMP    WIND        PRES    VSBY  SWELL
                          AIR SEA DIR/SP/G                  HT/PER/DIR
                          (F)     (DEG/KT/KT) (MB)    (MI)  (FT/S/D)
TANNER BANKS               64 66  320/ 14/ 19 1015.3          5/160/16
S CLEMENTE BASIN           66 68  300/ 10/ 12 1015.4R         3/170/16
SAN NICOLAS IS.               62                N/A           3/150/17
SO. S. ROSA ISLA           62 63  310/ 14/ 17 1015.1R         5/160/16
W. S. BARBARA CH           62 62  310/ 16/ 17 1015.0R         3/230/16
M. S. BARBARA CH           63 66  250/ 10/ 12 1015.2R         2/230/ 9
S. MONICA BASIN               70  320/ 10/ 12 1014.3R         3/180/16
S PEDRO CHANNEL               69                N/A           2/170/17
CMP PENDLETON NS              69                N/A           2/210/17
OCEANSIDE OFFSHR              71                N/A           3/180/15
TORREY PINES OTR              69                N/A           2/190/15
SAN DIEGO BAY                 75              1015.6R
POINT LOMA SOUTH              72                N/A           3/190/14

$$




USA.gov is the U.S. government's official web portal to all federal, state and local government web resources and services.